Regional Weather Roundup
Issued by NWS

Home | Current Version | Previous Version | Text Only | Print | Product List | Glossary Off
Versions: 1 2 3 4 5 6 7 8 9 10 11 12 13 14 15 16 17 18 19 20 21 22 23 24 25 26 27 28 29 30 31 32 33 34 35 36 37 38 39 40 41 42 43 44 45 46 47 48 49 50

000
ASUS45 KPSR 311310
RWRAZ

ARIZONA REGIONAL HOURLY WEATHER ROUNDUP
NATIONAL WEATHER SERVICE PHOENIX AZ
600 AM MST FRI OCT 31 2014

NOTE: FAIR INDICATES FEW OR NO CLOUDS BELOW 12,000 FEET WITH NO
SIGNIFICANT WEATHER AND/OR OBSTRUCTIONS TO VISIBILITY.

AZZ001>003-036-311400-
NORTHWEST ARIZONA

CITY           SKY/WX    TMP DP  RH WIND       PRES   REMARKS
BULLHEAD CITY  PTCLDY    64  32  29 CALM      29.89S
KINGMAN        MOCLDY    53  34  48 SE5       30.01S
$$

AZZ004>008-015-016-018-311400-
NORTH CENTRAL ARIZONA

CITY           SKY/WX    TMP DP  RH WIND       PRES   REMARKS
GRAND CANYON   MOCLDY    34  20  56 CALM      30.22S
PRESCOTT       MOCLDY    57  30  35 S6        30.12S
FLAGSTAFF      MOCLDY    40  28  62 CALM      30.25F
PAYSON         PTCLDY    54  32  43 CALM      30.18F
PAGE           MOCLDY    49  21  33 NW3       30.14S
$$

AZZ009>014-017-311400-
NORTHEAST ARIZONA

CITY           SKY/WX    TMP DP  RH WIND       PRES   REMARKS
WINSLOW        MOCLDY    47  25  42 SE12      30.18F
SAINT JOHNS    MOCLDY    44  26  49 CALM      30.22S
WINDOW ROCK    PTCLDY    31  14  49 N3        30.31F
SHOW LOW       CLOUDY    48  28  46 NE5       30.26R
$$

AZZ023-311400-
GREATER PHOENIX AREA

CITY           SKY/WX    TMP DP  RH WIND       PRES   REMARKS
PHOENIX        PTCLDY    70  44  39 SE6       29.89F
BUCKEYE          N/A     59  39  47 CALM      29.91S
GLENDALE       PTCLDY    63  45  51 CALM      29.92
LUKE AFB       PTCLDY    63  43  48 N7        29.90R
DEER VALLEY    PTCLDY    66  37  34 CALM      29.91S
SCOTTSDALE     CLEAR     67  41  38 CALM      29.93F
MESA-FALCON    MOCLDY    68  36  30 NE6       29.92
MESA-GATEWAY   MOCLDY    61  41  48 E7        29.94R
CHANDLER       PTCLDY    61  46  59 NE7       29.92
$$

AZZ027-028-311400-
SOUTHWEST MARICOPA COUNTY AND PINAL COUNTY

CITY           SKY/WX    TMP DP  RH WIND       PRES   REMARKS
CASA GRANDE    PTCLDY    61  39  44 CALM      29.93S
$$

AZZ503-504-507>509-311400-
SOUTHEAST ARIZONA

CITY           SKY/WX    TMP DP  RH WIND       PRES   REMARKS
TUCSON         PTCLDY    64  43  46 S9        30.01R
DAVIS-MONTHAN  MOCLDY    70  38  30 S9        29.98S
RYAN FIELD       N/A     61  41  48 E6        30.00
NOGALES        CLOUDY    58  43  57 E3        30.06S
SIERRA VISTA   PTCLDY    61  36  39 S9        30.13R
DOUGLAS        PTCLDY    62  38  40 SE7       30.12R
SAFFORD        PTCLDY    64  33  31 SE13      30.12R
$$

AZZ020-021-025-026-031-311400-
SOUTHWEST ARIZONA

CITY           SKY/WX    TMP DP  RH WIND       PRES   REMARKS
YUMA           CLEAR     67  42  40 CALM      29.85R
$$

CAZ031-033-041-043-047-048-061-311400-
SOUTHERN CALIFORNIA

CITY           SKY/WX    TMP DP  RH WIND       PRES   REMARKS
DOWNTOWN L.A.  MOCLDY    62  57  83 CALM      29.95R
L.A. AIRPORT   MOCLDY    64  60  86 CALM      29.95R
SAN DIEGO      CLOUDY    68  61  78 CALM      29.96S
BURBANK        CLOUDY    60  53  77 CALM      29.95S
ONTARIO        MOCLDY    57  54  89 CALM      29.95S
RIVERSIDE      MOCLDY    57  54  89 CALM      29.96S
PALM SPRINGS   FAIR      62  48  60 N3        29.87S
EL CENTRO NAS  CLEAR     61  37  41 CALM      29.83S
IMPERIAL       CLEAR     61  40  45 SW3       29.83S
BLYTHE         CLEAR     63  34  33 S3        29.86S
NEEDLES        CLEAR     63  30  28 NW5       29.88S
$$

NVZ020-UTZ003-311400-
SOUTHERN NEVADA-UTAH

CITY           SKY/WX    TMP DP  RH WIND       PRES   REMARKS
LAS VEGAS      PTCLDY    63  30  28 SW8       29.89S
SALT LAKE CITY PTCLDY    57  22  25 SE14      30.01S
$$

NMZ009-TXZ055-311400-
NEW MEXICO-WEST TEXAS

CITY           SKY/WX    TMP DP  RH WIND       PRES   REMARKS
ALBUQUERQUE    PTCLDY    52  26  36 NE14G23   30.35R
EL PASO        PTCLDY    57  47  69 CALM      30.30R
$$


........................KEY........................
SKY/WX - SKY CONDITION/WEATHER
TMP    - TEMPERATURE IN FAHRENHEIT
DP     - DEW POINT IN FAHRENHEIT
RH     - RELATIVE HUMIDITY IN PERCENT
WIND   - DIRECTION AND SPEED IN MILES PER HOUR (MPH)
VRB    - VARIABLE WIND DIRECTION
PRES   - MEAN SEA LEVEL PRESSURE IN INCHES OF MERCURY
         F - FALLING PRESSURE   R - RISING PRESSURE
         S - STEADY PRESSURE
VSB    - VISIBILITY IN MILES
HX     - HEAT INDEX IN FAHRENHEIT
WCI    - WIND CHILL INDEX IN FAHRENHEIT
TC     - TEMPERATURE IN CELSIUS WHICH IS ALSO KNOWN AS
         TEMPERATURE IN CENTIGRADE
AFB    - AIR FORCE BASE
         LUKE AFB IS LUKE AIR FORCE BASE
         DAVIS-MONTHAN IS DAVIS-MONTHAN AIR FORCE BASE
NAS    - NAVAL AIR STATION
         EL CENTRO NAS IS EL CENTRO NAVAL AIR STATION
N/A    - NOT AVAILABLE



USA.gov is the U.S. government's official web portal to all federal, state and local government web resources and services.